Previsão horária em Celarevo

Hoje, 2 Agosto, Segunda-feira

Tempo Temperatura Precipitação Vento Pressão Humidade
00:00 +22°C° 0 mm 3 m/s 749 mmHg 69%
01:00 +20°C° 0 mm 3 m/s 749 mmHg 79%
02:00 +19°C° 0 mm 3 m/s 750 mmHg 80%
03:00 +19°C° 0 mm 3 m/s 750 mmHg 82%
04:00 +18°C° 0 mm 3 m/s 751 mmHg 84%
05:00 +19°C° 0 mm 3 m/s 751 mmHg 76%
06:00 +20°C° 0 mm 4 m/s 752 mmHg 67%
07:00 +21°C° 0 mm 4 m/s 753 mmHg 59%
08:00 +23°C° 0 mm 4 m/s 753 mmHg 52%
09:00 +26°C° 0 mm 3 m/s 753 mmHg 45%
10:00 +28°C° 0 mm 3 m/s 753 mmHg 39%
11:00 +29°C° 0 mm 3 m/s 753 mmHg 36%
12:00 +31°C° 0 mm 3 m/s 753 mmHg 34%
13:00 +32°C° 0 mm 2 m/s 752 mmHg 31%
14:00 +32°C° 0 mm 2 m/s 752 mmHg 30%
15:00 +34°C° 0 mm 3 m/s 751 mmHg 29%
16:00 +34°C° 0 mm 3 m/s 751 mmHg 28%
17:00 +31°C° 0 mm 2 m/s 751 mmHg 31%
18:00 +30°C° 0 mm 2 m/s 751 mmHg 35%
19:00 +28°C° 0 mm 2 m/s 751 mmHg 38%
20:00 +27°C° 0 mm 2 m/s 752 mmHg 40%
21:00 +25°C° 0 mm 2 m/s 752 mmHg 43%
22:00 +24°C° 0 mm 2 m/s 753 mmHg 45%
23:00 +23°C° 0 mm 2 m/s 753 mmHg 47%

Amanhã, 3 Agosto, Terça-feira

Tempo Temperatura Precipitação Vento Pressão Humidade
00:00 +21°C° 0 mm 2 m/s 753 mmHg 49%
01:00 +20°C° 0 mm 2 m/s 754 mmHg 52%
02:00 +21°C° 0 mm 1 m/s 754 mmHg 54%
03:00 +20°C° 0 mm 1 m/s 754 mmHg 56%
04:00 +20°C° 0 mm 1 m/s 754 mmHg 58%
05:00 +21°C° 0 mm 1 m/s 754 mmHg 54%
06:00 +23°C° 0 mm 1 m/s 755 mmHg 49%
07:00 +25°C° 0 mm 1 m/s 755 mmHg 44%
08:00 +27°C° 0 mm 1 m/s 755 mmHg 40%
09:00 +29°C° 0 mm 1 m/s 755 mmHg 35%
10:00 +31°C° 0 mm 1 m/s 755 mmHg 30%
11:00 +33°C° 0 mm 1 m/s 754 mmHg 28%
12:00 +34°C° 0 mm 1 m/s 753 mmHg 25%
13:00 +35°C° 0 mm 1 m/s 753 mmHg 23%
14:00 +35°C° 0 mm 1 m/s 752 mmHg 22%
15:00 +35°C° 0 mm 1 m/s 752 mmHg 22%
16:00 +35°C° 0 mm 1 m/s 751 mmHg 21%
17:00 +32°C° 0.1 mm 2 m/s 751 mmHg 29%
18:00 +29°C° 0.1 mm 2 m/s 751 mmHg 38%
19:00 +26°C° 0.1 mm 2 m/s 751 mmHg 46%
20:00 +25°C° 0.1 mm 2 m/s 751 mmHg 49%
21:00 +24°C° 0.1 mm 1 m/s 751 mmHg 52%
22:00 +23°C° 0.1 mm 1 m/s 752 mmHg 54%
23:00 +22°C° 0 mm 1 m/s 752 mmHg 56%

Depois de amanhã, 4 Agosto, Quarta-feira

Tempo Temperatura Precipitação Vento Pressão Humidade
00:00 +22°C° 0 mm 1 m/s 752 mmHg 58%
01:00 +20°C° 0 mm 2 m/s 753 mmHg 60%
02:00 +20°C° 0 mm 2 m/s 753 mmHg 62%
03:00 +20°C° 0 mm 2 m/s 753 mmHg 64%
04:00 +19°C° 0 mm 2 m/s 753 mmHg 65%
05:00 +21°C° 0 mm 2 m/s 753 mmHg 60%
06:00 +24°C° 0 mm 2 m/s 753 mmHg 54%
07:00 +25°C° 0 mm 2 m/s 754 mmHg 48%
08:00 +28°C° 0 mm 1 m/s 753 mmHg 42%
09:00 +30°C° 0 mm 1 m/s 753 mmHg 35%
10:00 +33°C° 0 mm 1 m/s 753 mmHg 29%
11:00 +34°C° 0 mm 1 m/s 753 mmHg 25%
12:00 +36°C° 0 mm 2 m/s 752 mmHg 22%
13:00 +37°C° 0 mm 3 m/s 752 mmHg 19%
14:00 +37°C° 0 mm 3 m/s 751 mmHg 18%
15:00 +38°C° 0 mm 3 m/s 751 mmHg 16%
16:00 +38°C° 0 mm 4 m/s 751 mmHg 15%
17:00 +35°C° 0 mm 3 m/s 750 mmHg 18%
18:00 +33°C° 0 mm 3 m/s 750 mmHg 21%
19:00 +30°C° 0 mm 2 m/s 750 mmHg 24%
20:00 +29°C° 0 mm 2 m/s 750 mmHg 26%
21:00 +28°C° 0 mm 2 m/s 750 mmHg 27%
22:00 +27°C° 0 mm 2 m/s 750 mmHg 29%
23:00 +26°C° 0 mm 1 m/s 750 mmHg 32%

5 Agosto, Quinta-feira

Tempo Temperatura Precipitação Vento Pressão Humidade
00:00 +25°C° 0 mm 1 m/s 750 mmHg 35%
01:00 +24°C° 0 mm 1 m/s 750 mmHg 39%
02:00 +24°C° 0 mm 1 m/s 749 mmHg 43%
03:00 +23°C° 0 mm 1 m/s 749 mmHg 48%
04:00 +21°C° 0 mm 2 m/s 748 mmHg 52%
05:00 +23°C° 0.1 mm 2 m/s 749 mmHg 55%
06:00 +23°C° 0.1 mm 2 m/s 749 mmHg 58%
07:00 +23°C° 0.1 mm 2 m/s 749 mmHg 60%
08:00 +24°C° 0.1 mm 3 m/s 749 mmHg 57%
09:00 +25°C° 0.1 mm 3 m/s 749 mmHg 53%
10:00 +26°C° 0.1 mm 4 m/s 749 mmHg 49%
11:00 +26°C° 0.2 mm 4 m/s 750 mmHg 54%
12:00 +25°C° 0.2 mm 4 m/s 750 mmHg 60%
13:00 +25°C° 0.2 mm 5 m/s 750 mmHg 65%
14:00 +25°C° 0.1 mm 5 m/s 749 mmHg 62%
15:00 +26°C° 0.1 mm 5 m/s 749 mmHg 59%
16:00 +26°C° 0.1 mm 5 m/s 749 mmHg 57%
17:00 +25°C° 0.1 mm 4 m/s 749 mmHg 61%
18:00 +22°C° 0.1 mm 4 m/s 750 mmHg 66%
19:00 +21°C° 0.1 mm 3 m/s 750 mmHg 70%
20:00 +20°C° 0.1 mm 3 m/s 750 mmHg 77%
21:00 +18°C° 0.1 mm 2 m/s 750 mmHg 83%
22:00 +17°C° 0.1 mm 2 m/s 750 mmHg 89%
23:00 +17°C° 0 mm 2 m/s 750 mmHg 90%

6 Agosto, Sexta-feira

Tempo Temperatura Precipitação Vento Pressão Humidade
00:00 +16°C° 0 mm 2 m/s 750 mmHg 91%
01:00 +16°C° 0 mm 2 m/s 751 mmHg 92%
02:00 +16°C° 0 mm 2 m/s 751 mmHg 92%
03:00 +16°C° 0 mm 2 m/s 751 mmHg 92%
04:00 +16°C° 0 mm 1 m/s 751 mmHg 92%
05:00 +18°C° 0 mm 1 m/s 751 mmHg 85%
06:00 +19°C° 0 mm 1 m/s 751 mmHg 79%
07:00 +21°C° 0 mm 1 m/s 752 mmHg 72%
08:00 +23°C° 0 mm 1 m/s 752 mmHg 62%
09:00 +25°C° 0 mm 1 m/s 752 mmHg 52%
10:00 +28°C° 0 mm 1 m/s 752 mmHg 42%
11:00 +29°C° 0 mm 1 m/s 751 mmHg 38%
12:00 +31°C° 0 mm 1 m/s 751 mmHg 33%
13:00 +32°C° 0 mm 1 m/s 750 mmHg 29%
14:00 +32°C° 0 mm 1 m/s 750 mmHg 27%
15:00 +32°C° 0 mm 2 m/s 750 mmHg 26%
16:00 +34°C° 0 mm 2 m/s 750 mmHg 25%
17:00 +31°C° 0 mm 2 m/s 750 mmHg 29%
18:00 +29°C° 0 mm 2 m/s 750 mmHg 32%
19:00 +27°C° 0 mm 2 m/s 750 mmHg 36%
20:00 +25°C° 0 mm 2 m/s 750 mmHg 38%
21:00 +24°C° 0 mm 2 m/s 751 mmHg 41%
22:00 +23°C° 0 mm 2 m/s 751 mmHg 44%
23:00 +21°C° 0 mm 2 m/s 751 mmHg 46%

7 Agosto, Sábado

Tempo Temperatura Precipitação Vento Pressão Humidade
00:00 +21°C° 0 mm 2 m/s 751 mmHg 47%
01:00 +20°C° 0 mm 2 m/s 752 mmHg 49%
02:00 +20°C° 0 mm 2 m/s 752 mmHg 50%
03:00 +19°C° 0 mm 2 m/s 752 mmHg 52%
04:00 +19°C° 0 mm 2 m/s 752 mmHg 53%
05:00 +21°C° 0 mm 2 m/s 752 mmHg 48%
06:00 +24°C° 0 mm 2 m/s 753 mmHg 44%
07:00 +26°C° 0 mm 2 m/s 753 mmHg 39%
08:00 +28°C° 0 mm 3 m/s 753 mmHg 33%
09:00 +31°C° 0 mm 3 m/s 753 mmHg 28%
10:00 +34°C° 0 mm 4 m/s 752 mmHg 22%
11:00 +35°C° 0 mm 4 m/s 752 mmHg 20%
12:00 +36°C° 0 mm 4 m/s 752 mmHg 18%
13:00 +38°C° 0 mm 4 m/s 751 mmHg 16%
14:00 +38°C° 0 mm 3 m/s 751 mmHg 15%
15:00 +38°C° 0 mm 3 m/s 751 mmHg 15%
16:00 +38°C° 0 mm 3 m/s 751 mmHg 14%
17:00 +36°C° 0 mm 3 m/s 751 mmHg 17%
18:00 +33°C° 0 mm 3 m/s 751 mmHg 20%
19:00 +30°C° 0 mm 3 m/s 750 mmHg 23%
20:00 +29°C° 0 mm 3 m/s 751 mmHg 24%
21:00 +27°C° 0 mm 3 m/s 751 mmHg 26%
22:00 +26°C° 0 mm 3 m/s 751 mmHg 28%
23:00 +26°C° 0 mm 3 m/s 751 mmHg 29%
Mostrar mais

Necessitamos do seu Consentimento

A Meteoprog e os seus Fornecedores de Serviços podem armazenar e aceder a dados pessoais como cookies, identificadores do dispositivo ou outras tecnologias semelhantes existentes no seu dispositivo e processar estes dados para personalizar conteúdos e anúncios, assim como funcionalidades nas redes sociais e análise de tráfego.

  • Armazenar e/ou aceder a informações no seu dispositivo

    Os cookies, identificadores do dispositivo ou outras informações podem ser armazenados ou acedidos no seu dispositivo, para os fins acima indicados.

  • Anúncios e conteúdos personalizados, medição de anúncios e conteúdos, dados sobre o público-alvo e desenvolvimento de produtos

    Os anúncios e os conteúdos podem ser personalizados com base num perfil. Podem ser adicionados dados adicionais para uma maior personalização dos anúncios e dos conteúdos. A eficácia dos anúncios e dos conteúdos pode ser medida. Podem ser obtidas informações sobre o público que visualizou os anúncios e os conteúdos. Estes dados podem ser usados para desenvolver ou melhorar sistemas, softwares ou a experiência do utilizador.

Ao clicar em "Eu concordo”, permitirá o uso de cookies, identificadores do dispositivo e web beacons mencionados ou outras tecnologias semelhantes. As configurações do navegador do seu dispositivo podem ser alteradas.

Para certos fins, podem ser invocados interesses legítimos ao invés de consentimento. Pode ler mais informação sobre este assunto na nossa Política de Privacidade e Cookies.